Location: Easter Hill Village
(37.9235°N, 122.3444°W)
Time: 06:26:29
(UTC+00:00)

ATLAS 3B R/B - Pass Details

Date: 16 September 2019
Orbit: 1028 x 1166 km, 63.8° (Epoch: 07 October)

Event Time Altitude Azimuth Distance (km) Brightness Sun altitude
Exits shadow 13:17:11 - 265° (W) 2,956 4.3 -7.6°
Reaches altitude 10° 13:17:34 10° 267° (W) 2,855 4.3 -7.6°
Maximum altitude 13:22:46 23° 318° (NW) 2,027 3.9 -6.5°
Drops below altitude 10° 13:27:57 10° 10° (N) 2,830 5.2 -5.5°
Sets 13:31:11 0° 25° (NNE) 3,784 6.1 -4.9°
